[[{"header":{"parameterUnit":"m.s-1","parameterCategory":1,"la1":30.2991,"la2":30.254,"lo1":-89.0895,"lo2":-89.0444,"dy":0.0017,"dx":0.0017,"nx":28,"ny":28,"refTime":"2025-01-28T03:00:00:Z","depth":0,"parameterNumber":2,"parameterNumberName":"U-component_of_WINDS"},"data":[0,0,0,0,0,0,0,0,0,0,0,0,0,0,0,0,0,0,0,0,0,0,0,0,0,0,0,0,0,0,0,0,0,0,0,0,0,0,0,0,0,0,0,0,0,0,0,0,0,0,0,0,0,0,0,0,0,0,1.2189,1.219,0,1.2307,1.2308,1.231,1.2329,1.2328,1.2327,1.2326,1.2448,1.2452,1.2456,0,0,0,0,0,0,0,0,0,0,0,0,0,1.1982,1.1985,1.2189,1.219,1.2192,1.2307,1.2308,1.231,1.2329,1.2328,1.2327,1.2326,1.2447,1.2452,1.2457,0,0,0,0,0,0,0,0,0,0,0,0,0,1.2083,1.1986,1.2189,1.2215,1.2219,1.2307,1.2309,1.2311,1.233,1.2328,1.2327,1.2325,1.2445,1.2451,1.2457,1.2527,0,0,1.2477,1.2479,0,0,0,0,0,0,0,0,1.2077,1.209,1.221,1.2214,1.2218,1.2302,1.228,1.2383,1.233,1.2288,1.2326,1.2324,1.2401,1.2411,1.2436,1.2533,1.2538,1.2477,1.2481,1.2484,1.2486,0,0,0,0,0,0,0,1.207,1.2085,1.2236,1.2212,1.2217,1.2222,1.2235,1.23,1.2351,1.2291,1.2293,1.2307,1.2403,1.243,1.2439,1.254,1.2477,1.2483,1.2487,1.2489,1.27,1.2702,0,0,0,0,0,0,1.2058,1.2079,1.2232,1.2239,1.2142,1.2227,1.2241,1.2276,1.2351,1.2361,1.2308,1.2307,1.242,1.2432,1.2443,1.253,1.2484,1.249,1.2493,1.2698,1.27,1.2702,0,0,0,0,0,0,1.2053,1.2071,1.2227,1.216,1.218,1.2232,1.2272,1.228,1.2307,1.2363,1.2373,1.2326,1.2419,1.2435,1.2506,1.2534,1.2492,1.2498,1.2696,1.2699,1.2701,1.2703,0,0,0,0,0,0,1.2047,1.207,1.2096,1.216,1.2184,1.2287,1.2273,1.2283,1.2318,1.2318,1.2383,1.2392,1.2419,1.2497,1.2512,1.2542,1.2503,1.2694,1.2697,1.27,1.2701,1.2706,1.271,0,0,0,0,0,1.204,1.2092,1.2098,1.2116,1.2218,1.2289,1.2302,1.2332,1.232,1.2347,1.2383,1.239,1.2529,1.2504,1.2522,1.2554,1.2692,1.2696,1.27,1.2699,1.2705,1.271,0,0,0,0,0,0,1.2031,1.2101,1.2108,1.2182,1.2229,1.2292,1.2328,1.2337,1.2389,1.2387,1.2422,1.2437,1.2506,1.2537,1.2508,1.2625,1.2609,1.2617,1.2602,1.2608,1.2613,1.2604,1.2508,0,0,0,0,0,1.2037,1.2089,1.2148,1.2208,1.2231,1.2275,1.2307,1.2326,1.2376,1.2397,1.2438,1.2487,1.2542,1.2577,1.263,1.2706,1.272,1.2737,1.2741,1.2745,1.2751,1.2793,1.2801,1.2716,1.2716,1.2715,0,0,1.2051,1.2096,1.2127,1.2207,1.2246,1.2299,1.2292,1.2348,1.2388,1.2405,1.2475,1.2507,1.2564,1.2638,1.2673,1.2666,1.2778,1.275,1.2752,1.2757,1.2798,1.2806,1.2814,1.2718,1.2718,1.2717,0,0,1.2104,1.2143,1.2198,1.2237,1.2295,1.2324,1.2337,1.2399,1.2421,1.2491,1.2506,1.2554,1.2647,1.2687,1.272,1.2788,1.2796,1.2804,1.2828,1.2869,1.2875,1.2882,1.2906,1.2914,1.2811,1.2811,1.2811,0,1.2114,1.2194,1.2224,1.228,1.2315,1.2333,1.2389,1.2425,1.2499,1.2523,1.2514,1.2632,1.2672,1.2755,1.2772,1.2797,1.2814,1.2797,1.2872,1.2878,1.2885,1.2908,1.2917,1.2811,1.2811,1.2811,1.2811,0,1.2204,1.2259,1.2296,1.2366,1.2405,1.246,1.25,1.2536,1.2551,1.2581,1.2653,1.2702,1.2765,1.2787,1.2802,1.2872,1.2867,1.2865,1.2849,1.2893,1.2916,1.2925,1.2812,1.2812,1.2812,1.2812,0,0,1.2253,1.2339,1.2352,1.2384,1.2451,1.2494,1.2551,1.2613,1.2643,1.2693,1.2741,1.282,1.2819,1.2856,1.2876,1.2912,1.2963,1.2906,1.2908,1.2915,1.3044,1.3044,1.3054,1.297,1.2971,1.2973,1.3039,0,1.2313,1.2414,1.2443,1.2528,1.258,1.2598,1.2647,1.2693,1.2723,1.2772,1.2805,1.286,1.2854,1.2877,1.2913,1.2949,1.299,1.2945,1.3015,1.3017,1.3,1.3066,1.3067,1.3127,1.3048,1.305,1.3051,0,1.2397,1.2448,1.2538,1.2598,1.2621,1.2664,1.2724,1.277,1.2823,1.2842,1.2883,1.2901,1.2961,1.2942,1.3026,1.2995,1.3025,1.3048,1.3051,1.3058,1.3036,1.3075,1.3147,1.3156,1.3065,1.3064,1.3063,0,1.2424,1.2516,1.2581,1.2608,1.268,1.271,1.2741,1.2793,1.2828,1.288,1.2904,1.2962,1.2994,1.3039,1.3072,1.3056,1.3153,1.3137,1.317,1.317,1.319,1.3188,1.3267,1.321,1.321,1.3209,1.3209,0,1.2488,1.2542,1.2594,1.2634,1.2696,1.2729,1.279,1.2822,1.2868,1.2915,1.2935,1.2979,1.302,1.3069,1.3096,1.3161,1.3175,1.3193,1.3199,1.3191,1.3188,1.3211,1.3207,1.3212,1.3211,1.3211,1.321,0,1.2528,1.2565,1.2638,1.27,1.2717,1.2759,1.2812,1.2852,1.2883,1.2943,1.2959,1.3007,1.3066,1.3104,1.318,1.3197,1.3269,1.3274,1.3251,1.3253,1.3285,1.3281,1.3381,1.3396,1.3329,1.3329,1.333,0,1.2566,1.2608,1.2675,1.2707,1.2739,1.2792,1.2828,1.2863,1.29,1.2964,1.2996,1.3057,1.3107,1.3202,1.3244,1.3302,1.3308,1.3339,1.3317,1.3308,1.3309,1.3305,1.331,1.3343,1.3343,1.3344,1.3344,0,1.263,1.2646,1.2697,1.2755,1.2798,1.2845,1.2892,1.2918,1.2962,1.3002,1.3063,1.3102,1.3179,1.324,1.3302,1.3334,1.3347,1.3351,1.3362,1.3353,1.3338,1.3346,1.326,1.3348,1.3348,1.3348,1.3347,1.3347,1.267,1.2708,1.2761,1.2818,1.2857,1.2901,1.2941,1.2977,1.3028,1.3094,1.3112,1.3175,1.3228,1.3312,1.3346,1.3397,1.3393,1.3409,1.3413,1.3416,1.3416,1.333,1.3409,1.3409,1.3408,1.3408,1.3408,0,1.2734,1.2769,1.2821,1.2886,1.2931,1.2939,1.2992,1.3028,1.3084,1.3132,1.3181,1.3251,1.331,1.3357,1.3417,1.3449,1.3456,1.3463,1.3461,1.3468,1.3416,1.3401,1.3456,1.3456,1.3456,1.3456,1.3456,1.3456,1.2773,1.2838,1.2861,1.2946,1.2981,1.3043,1.3073,1.3113,1.3152,1.3229,1.3278,1.3308,1.3355,1.3419,1.3474,1.3486,1.3507,1.3514,1.3527,1.3477,1.3472,1.3467,1.3452,1.3518,1.3518,1.3575,1.3575,1.3576]},{"header":{"parameterUnit":"m.s-1","parameterCategory":1,"la1":30.2991,"la2":30.254,"lo1":-89.0895,"lo2":-89.0444,"dy":0.0017,"dx":0.0017,"nx":28,"ny":28,"refTime":"2025-01-28T03:00:00:Z","depth":0,"parameterNumber":3,"parameterNumberName":"V-component_of_WINDS"},"data":[0,0,0,0,0,0,0,0,0,0,0,0,0,0,0,0,0,0,0,0,0,0,0,0,0,0,0,0,0,0,0,0,0,0,0,0,0,0,0,0,0,0,0,0,0,0,0,0,0,0,0,0,0,0,0,0,0,0,0.4173,0.4173,0,0.4148,0.4148,0.4147,0.4141,0.4142,0.4142,0.4142,0.4115,0.4114,0.4113,0,0,0,0,0,0,0,0,0,0,0,0,0,0.4215,0.4214,0.4173,0.4173,0.4173,0.4148,0.4148,0.4147,0.4141,0.4142,0.4142,0.4142,0.4115,0.4114,0.4113,0,0,0,0,0,0,0,0,0,0,0,0,0,0.4194,0.4214,0.4173,0.4167,0.4166,0.4148,0.4148,0.4147,0.4141,0.4142,0.4142,0.4142,0.4115,0.4114,0.4113,0.4099,0,0,0.4109,0.4108,0,0,0,0,0,0,0,0,0.4195,0.4192,0.4168,0.4167,0.4166,0.4148,0.4152,0.4131,0.4141,0.4151,0.4142,0.4142,0.4125,0.4123,0.4118,0.4098,0.4097,0.4108,0.4108,0.4107,0.4107,0,0,0,0,0,0,0,0.4197,0.4193,0.4163,0.4168,0.4167,0.4165,0.4162,0.4148,0.4137,0.415,0.4149,0.4147,0.4125,0.4119,0.4117,0.4096,0.4108,0.4107,0.4106,0.4106,0.4063,0.4063,0,0,0,0,0,0,0.4199,0.4195,0.4164,0.4163,0.4182,0.4164,0.4161,0.4154,0.4137,0.4135,0.4146,0.4146,0.4121,0.4119,0.4116,0.4099,0.4107,0.4106,0.4105,0.4063,0.4063,0.4063,0,0,0,0,0,0,0.42,0.4197,0.4165,0.4178,0.4174,0.4163,0.4155,0.4153,0.4147,0.4134,0.4132,0.4143,0.4122,0.4118,0.4103,0.4098,0.4105,0.4104,0.4064,0.4063,0.4063,0.4065,0,0,0,0,0,0,0.4202,0.4197,0.4192,0.4178,0.4174,0.4153,0.4155,0.4152,0.4145,0.4145,0.413,0.4128,0.4121,0.4105,0.4102,0.4096,0.4103,0.4064,0.4063,0.4063,0.4065,0.4065,0.4064,0,0,0,0,0,0.4203,0.4194,0.4192,0.4188,0.4167,0.4153,0.415,0.4143,0.4145,0.414,0.4131,0.4129,0.4099,0.4104,0.41,0.4094,0.4064,0.4064,0.4063,0.4066,0.4065,0.4064,0,0,0,0,0,0,0.4207,0.4192,0.419,0.4176,0.4166,0.4152,0.4145,0.4142,0.4131,0.4132,0.4123,0.4119,0.4105,0.4098,0.4104,0.408,0.4082,0.408,0.4085,0.4084,0.4083,0.4086,0.4102,0,0,0,0,0,0.4206,0.4196,0.4183,0.4172,0.4167,0.4157,0.4151,0.4146,0.4135,0.4131,0.4121,0.411,0.4098,0.4091,0.4079,0.4064,0.406,0.4058,0.4057,0.4057,0.4055,0.4046,0.4045,0.406,0.406,0.406,0,0,0.4205,0.4195,0.4189,0.4173,0.4165,0.4154,0.4154,0.4143,0.4134,0.4129,0.4114,0.4107,0.4094,0.4079,0.4072,0.4072,0.405,0.4056,0.4055,0.4054,0.4045,0.4044,0.4043,0.4059,0.406,0.406,0,0,0.4197,0.4188,0.4178,0.417,0.4157,0.415,0.4148,0.4134,0.4129,0.4115,0.411,0.41,0.408,0.4071,0.4063,0.4051,0.4048,0.4047,0.4044,0.4035,0.4034,0.4033,0.4028,0.4027,0.4046,0.4046,0.4046,0,0.4196,0.4181,0.4173,0.4162,0.4155,0.4149,0.4139,0.4131,0.4115,0.4109,0.411,0.4085,0.4076,0.4058,0.4055,0.4049,0.4046,0.4049,0.4035,0.4034,0.4032,0.4028,0.4026,0.4046,0.4046,0.4046,0.4046,0,0.4181,0.417,0.4163,0.4148,0.414,0.4129,0.4119,0.4112,0.4107,0.41,0.4085,0.4074,0.406,0.4055,0.4051,0.4037,0.4037,0.4037,0.4039,0.4031,0.4027,0.4025,0.4046,0.4046,0.4046,0.4046,0,0,0.4175,0.4156,0.4154,0.4147,0.4132,0.4123,0.4111,0.4098,0.4091,0.408,0.407,0.4053,0.4052,0.4044,0.4038,0.403,0.4021,0.403,0.403,0.4029,0.4004,0.4005,0.4003,0.4019,0.4018,0.4018,0.4005,0,0.4165,0.4145,0.4138,0.4121,0.4111,0.4105,0.4095,0.4084,0.4077,0.4067,0.4058,0.4046,0.4046,0.4041,0.4033,0.4024,0.4016,0.4024,0.4009,0.4008,0.4013,0.4001,0.4002,0.3991,0.4004,0.4003,0.4003,0,0.4151,0.414,0.4123,0.4109,0.4104,0.4095,0.4082,0.4072,0.406,0.4055,0.4046,0.404,0.4027,0.403,0.4011,0.4017,0.401,0.4004,0.4004,0.4002,0.4006,0.3999,0.3987,0.3986,0.4,0.4001,0.4001,0,0.4149,0.413,0.4117,0.4111,0.4094,0.4088,0.4081,0.4069,0.4061,0.4049,0.4044,0.403,0.4023,0.4012,0.4003,0.4006,0.3985,0.3987,0.3981,0.3981,0.3977,0.3978,0.3964,0.3972,0.3972,0.3972,0.3972,0,0.4139,0.4129,0.4116,0.4108,0.4095,0.4087,0.4074,0.4067,0.4056,0.4046,0.4039,0.403,0.4018,0.4007,0.4,0.3985,0.3982,0.3977,0.3975,0.3978,0.3979,0.3973,0.3974,0.3972,0.3972,0.3972,0.3972,0,0.4135,0.4126,0.4111,0.4097,0.4093,0.4084,0.4072,0.4063,0.4055,0.4042,0.4039,0.4026,0.4013,0.4002,0.3985,0.398,0.3964,0.3962,0.3969,0.3968,0.3962,0.3963,0.3945,0.3942,0.3952,0.3952,0.3952,0,0.4129,0.4121,0.4106,0.4099,0.4092,0.408,0.4072,0.4063,0.4055,0.404,0.4033,0.4019,0.4007,0.3985,0.3974,0.396,0.3958,0.3953,0.3956,0.3959,0.3958,0.3959,0.3958,0.3952,0.3952,0.3952,0.3952,0,0.4121,0.4116,0.4105,0.4093,0.4083,0.4073,0.4062,0.4056,0.4045,0.4036,0.4022,0.4013,0.3994,0.398,0.3965,0.3957,0.3952,0.3951,0.3949,0.3952,0.3956,0.3953,0.3968,0.3952,0.3952,0.3952,0.3952,0.3952,0.4116,0.4108,0.4096,0.4084,0.4074,0.4064,0.4056,0.4047,0.4035,0.402,0.4015,0.4,0.3987,0.3966,0.3958,0.3946,0.3946,0.3943,0.3942,0.3941,0.3941,0.3957,0.3943,0.3943,0.3943,0.3943,0.3943,0,0.4106,0.4098,0.4087,0.4072,0.4062,0.4059,0.4047,0.4039,0.4026,0.4015,0.4003,0.3987,0.3973,0.3961,0.3946,0.3939,0.3936,0.3935,0.3936,0.3934,0.3942,0.3946,0.3937,0.3937,0.3937,0.3937,0.3937,0.3937,0.4101,0.4087,0.4082,0.4063,0.4055,0.4041,0.4034,0.4025,0.4015,0.3998,0.3986,0.3978,0.3966,0.395,0.3937,0.3934,0.3929,0.3928,0.3924,0.3933,0.3933,0.3934,0.3937,0.3927,0.3927,0.3917,0.3916,0.3916]}]]